{"data":{"norad_id":66462,"epoch":"2026-09-20T08:53:21.440256Z","epoch_age_seconds":100826,"freshness":"FRESH","line1":"1 66462U 25262G   26263.37038704 -.00000091  00000+0  62256-5 0  9998","line2":"2 66462  43.0023 276.4326 0001266 261.1858  98.8850 15.27550707 48687","mean_motion":15.27550707,"eccentricity":0.0001266,"inclination_deg":43.0023,"raan_deg":276.4326,"arg_perigee_deg":261.1858,"mean_anomaly_deg":98.885,"bstar":6.2256e-6,"rev_number":4868,"period_min":94.26855641526,"perigee_km":482.26817395695,"apogee_km":484.00544848595,"semimajor_km":6861.2738112215,"source":"CELESTRAK","updated_at":"2026-09-21T09:00:35.913514Z"}}